Wind_Speed
17 16 16 16 16 16 16 16 16 15 15 14 14 13 12 12 12 11 11 10 9 8 8 7 7 8 8 8 7 7 6 6 6 6 6 6 6 7 7 7 7 7 7 7 7 7 8 9 9 10 10 10 10 9 9 9 9 9 9 9 9 9 9 9 9 9 9 9 10 11 12 13 14 14
18 18 18 18 17 17 17 17 18 17 17 16 16 16 15 15 14 13 13 12 11 11 10 9 9 9 10 10 9 9 8 8 8 8 8 8 8 8 8 8 8 8 8 8 8 8 9 9 10 10 11 11 11 11 11 11 11 11 11 11 11 11 11 11 11 11 11 11 12 12 13 14 15 16
19 19 19 18 18 18 18 18 19 19 18 18 19 19 18 18 17 16 16 14 13 13 13 11 10 11 11 12 12 11 11 10 10 10 10 10 10 10 10 10 9 9 9 9 9 9 10 10 11 11 12 12 12 12 12 12 13 13 13 13 13 13 14 14 14 14 14 14 15 15 16 16 17 18
20 20 20 20 19 19 19 19 20 20 19 20 20 20 20 20 19 18 18 17 16 16 15 14 12 12 13 13 14 14 13 13 13 13 12 12 11 11 11 11 11 11 10 10 10 11 11 11 12 13 13 13 13 13 13 14 14 15 15 16 15 15 15 16 16 16 16 16 17 18 18 18 19 20
22 22 22 22 21 20 19 20 20 20 20 20 20 21 20 20 20 20 20 20 19 18 18 17 15 14 14 15 16 16 16 15 15 15 14 14 12 12 12 13 13 12 12 12 12 12 12 12 13 13 14 15 15 15 15 15 16 16 17 17 17 17 17 17 18 18 18 18 19 19 20 20 20 21
24 24 24 24 23 22 21 21 21 21 20 20 20 20 20 21 21 21 21 21 21 20 19 19 18 17 16 17 18 18 18 17 17 17 17 16 15 13 13 14 15 15 15 14 14 15 15 15 15 15 15 16 16 17 17 17 18 18 18 19 19 19 19 19 20 20 20 21 21 21 22 22 22 23
26 26 26 26 25 24 23 23 23 22 21 20 20 21 21 21 21 21 21 21 22 21 21 21 20 19 19 19 19 20 20 19 19 19 19 19 17 16 15 15 16 17 17 17 17 16 17 17 17 17 17 17 18 18 19 19 20 20 20 21 21 21 22 22 22 23 23 23 24 24 24 24 24 25
27 27 28 28 27 26 25 24 24 24 23 22 21 21 22 22 22 22 22 22 22 22 22 23 22 21 21 21 20 21 21 21 21 21 21 21 20 18 17 17 17 17 18 19 19 18 18 18 18 18 19 19 19 20 20 21 21 22 22 23 23 24 24 25 25 25 25 26 26 27 26 27 27 28
26 27 28 29 29 27 26 26 26 26 25 23 23 22 23 23 23 22 22 22 23 23 24 24 24 23 23 22 21 21 22 22 23 23 23 23 22 21 21 20 19 18 19 20 20 21 21 20 20 20 21 21 22 22 22 23 23 24 24 24 25 25 26 27 27 27 27 28 28 28 29 29 29 30
26 27 28 30 30 29 28 28 28 28 27 25 24 24 24 24 24 23 23 23 23 24 25 25 25 25 24 24 23 22 22 23 24 25 24 24 24 24 24 23 22 22 22 22 22 22 22 23 23 23 23 24 24 24 24 25 25 25 26 27 27 27 28 28 29 29 29 29 30 30 30 30 31 32
28 28 29 30 31 31 30 30 31 31 30 28 27 26 26 26 25 24 24 24 24 24 25 26 27 26 26 25 24 24 23 23 24 25 25 24 25 26 26 26 26 25 25 25 24 24 24 24 25 26 26 27 27 27 26 27 27 27 28 29 29 29 29 30 30 31 31 31 32 32 32 32 33 34
29 30 30 30 30 31 31 32 33 33 32 31 29 28 28 27 26 26 26 25 25 25 26 27 27 27 27 26 26 26 26 25 26 26 25 25 26 26 26 27 28 29 29 29 28 27 27 27 27 28 29 29 29 29 29 29 29 29 30 31 31 31 31 31 32 33 33 33 34 34 34 34 35 35
30 31 31 31 31 31 31 32 33 34 35 34 32 31 30 29 29 28 27 26 27 27 27 27 28 28 28 28 28 28 28 28 28 27 26 26 26 25 26 28 30 31 32 32 31 31 30 30 30 30 31 31 31 31 31 30 30 31 32 33 33 33 33 33 33 34 35 35 36 36 36 37 37 37
31 32 31 31 31 31 31 31 31 33 35 36 35 34 33 32 31 29 29 28 28 28 27 28 29 29 29 29 30 30 30 31 30 29 28 26 25 25 26 27 30 32 33 33 33 33 34 33 33 32 33 33 32 32 32 32 32 33 34 35 35 35 35 34 35 35 36 37 37 38 38 38 38 38
31 32 31 31 31 31 30 30 30 31 33 35 37 37 36 35 33 31 31 30 30 29 28 29 30 30 29 30 31 32 32 33 32 30 29 27 27 27 26 27 29 32 33 32 32 34 35 35 34 34 35 35 35 34 34 34 34 35 35 36 37 37 36 36 36 36 37 38 38 38 38 39 39 38
30 31 32 32 32 31 31 30 30 31 32 34 36 37 38 37 35 34 33 32 31 31 30 30 30 30 30 31 32 33 34 34 33 32 31 30 29 28 27 27 29 32 33 33 32 33 35 35 35 35 36 37 37 36 36 35 35 36 37 37 38 37 37 37 37 37 37 38 38 38 38 38 38 39
30 30 31 32 33 33 33 32 32 32 32 33 34 36 37 37 37 36 35 34 34 33 32 31 31 31 32 31 32 34 35 34 34 34 33 32 31 30 30 30 31 32 33 34 33 31 33 36 35 34 37 39 38 37 37 37 37 37 38 38 38 38 39 39 38 38 37 37 37 37 37 37 39 39
29 29 30 31 31 32 33 33 33 33 33 33 33 34 35 36 37 37 37 37 37 36 35 34 33 33 34 33 33 35 36 35 35 35 34 34 33 32 33 33 34 34 34 35 35 31 32 36 36 34 38 41 40 39 39 39 39 39 39 39 40 39 40 40 40 39 38 37 37 37 37 38 39 40
29 29 29 28 29 30 31 32 33 34 33 33 32 32 33 34 36 37 38 39 39 38 37 36 35 35 36 35 35 36 37 36 37 37 36 35 34 34 35 35 35 35 36 37 36 33 32 36 37 36 38 41 40 40 41 41 41 41 41 41 41 41 41 41 41 41 40 39 39 39 39 40 40 40
28 28 28 27 28 29 30 32 33 34 34 33 32 31 32 33 34 36 37 39 39 39 38 37 36 36 36 37 36 37 37 37 38 38 37 35 35 36 36 35 35 36 37 38 37 35 33 35 38 39 40 40 40 40 41 42 42 43 43 43 43 43 43 43 43 43 42 42 41 41 41 41 41 41
28 28 28 28 28 28 29 31 33 34 35 33 32 31 32 33 34 34 36 37 38 38 38 37 36 36 36 36 36 36 37 37 38 38 37 36 38 39 38 36 36 37 37 37 38 37 35 36 39 40 40 40 39 40 41 42 43 44 44 44 43 43 43 44 44 43 43 42 42 41 41 41 42 42
28 29 29 29 29 29 29 31 33 34 35 33 32 32 32 32 32 33 34 36 36 37 36 35 35 35 35 35 35 35 36 37 38 37 37 38 40 41 39 38 38 38 37 37 39 40 37 37 40 41 40 40 39 40 41 42 44 45 45 44 44 44 44 44 45 44 44 43 42 42 41 42 43 43
28 29 30 30 30 30 30 31 32 33 34 33 32 32 32 31 31 32 34 34 35 36 36 35 36 36 35 36 35 35 36 37 38 37 37 38 41 41 40 40 39 38 36 36 40 42 40 39 40 41 41 40 38 38 41 43 44 45 45 45 45 44 44 45 45 45 44 43 43 42 42 43 44 44
27 28 29 31 31 31 32 32 32 33 33 33 33 32 32 31 31 32 33 33 34 35 36 36 36 36 36 36 36 36 37 38 38 38 38 38 40 41 40 40 40 39 36 36 40 43 42 41 42 42 43 43 39 37 38 41 43 44 45 46 46 45 45 45 45 45 45 44 44 43 44 44 43 44
28 28 30 31 32 32 31 32 32 33 33 33 33 33 32 32 32 33 33 34 35 36 36 37 37 37 37 37 36 36 37 38 39 39 39 39 41 41 40 40 40 39 37 37 40 43 42 42 43 44 44 44 42 40 40 40 40 42 44 45 45 46 47 47 46 46 46 45 45 45 46 45 43 44
28 29 30 31 31 30 30 31 32 32 32 33 33 33 34 34 34 34 34 35 36 36 37 37 37 37 37 37 36 37 38 38 39 40 40 41 41 41 41 40 41 40 39 39 40 42 42 42 43 45 44 43 44 45 44 42 41 42 44 45 45 47 48 48 48 48 47 46 45 46 46 45 44 46
27 28 29 29 29 29 29 30 30 31 31 32 33 34 35 36 36 36 36 36 37 37 38 38 37 37 37 37 37 38 39 39 40 41 41 42 42 42 42 42 42 42 41 40 39 40 42 41 41 43 44 44 44 45 45 43 43 44 45 46 47 48 48 49 49 49 48 47 47 48 47 45 46 47
27 27 28 29 29 29 30 30 31 31 32 33 34 35 37 38 38 38 37 37 38 38 38 38 38 38 38 38 39 39 40 41 41 41 42 43 43 44 44 44 44 44 43 42 41 42 42 42 42 43 44 45 46 45 44 43 44 44 45 47 48 48 49 50 50 50 49 49 48 48 48 47 48 50
28 28 28 29 30 31 32 32 32 32 32 33 34 35 37 38 39 39 39 39 40 39 39 39 40 39 39 40 40 40 41 41 41 41 43 44 45 45 46 46 46 45 44 44 44 45 45 44 43 44 46 47 47 46 45 45 45 46 46 47 48 48 49 51 51 51 51 51 51 50 49 51 53 54
29 29 29 31 31 32 33 33 33 33 34 35 36 37 38 39 40 40 41 41 41 41 40 41 41 40 41 42 42 42 43 43 42 43 45 46 46 47 48 49 48 46 46 46 47 47 48 47 46 47 48 48 48 47 47 47 47 46 46 47 48 49 49 50 50 52 52 52 53 52 52 54 56 58
30 31 32 33 33 34 34 35 35 35 35 36 37 38 39 40 41 42 43 44 44 43 43 44 44 43 43 45 45 45 46 46 46 47 49 50 49 50 51 53 51 48 47 48 49 49 50 50 50 50 50 50 50 49 49 50 50 49 49 49 50 51 51 51 51 53 53 54 55 55 55 55 56 56
27 29 30 31 32 32 32 32 32 33 33 34 35 35 36 37 38 39 40 41 42 42 42 43 43 42 43 44 44 45 46 46 45 47 50 51 50 50 53 54 52 49 48 49 49 49 50 52 53 53 53 53 52 51 51 52 51 50 51 52 53 53 52 51 52 53 55 56 56 57 56 55 52 52
26 27 28 29 30 31 31 32 32 32 33 34 34 35 36 37 37 37 38 38 38 39 40 40 40 40 40 41 41 42 43 43 43 44 47 48 48 49 51 52 51 48 47 47 46 47 49 51 53 54 54 52 50 50 50 51 49 49 50 52 53 53 52 52 53 55 56 58 59 59 57 53 50 50
27 28 29 30 31 31 32 33 33 34 34 35 36 36 37 38 38 39 39 39 39 40 40 41 40 41 41 41 41 42 43 43 44 45 46 48 48 49 50 50 50 48 47 47 46 46 47 48 51 53 53 51 49 48 48 49 48 47 48 48 48 50 50 50 51 52 54 56 56 55 52 48 47 49
28 29 30 30 31 32 33 34 34 35 36 36 37 37 38 38 39 39 39 40 40 40 40 41 41 41 41 41 42 42 43 44 45 45 47 48 50 50 51 51 51 50 49 48 47 46 46 47 48 49 50 50 49 48 47 47 47 48 47 46 44 45 46 45 44 44 47 49 48 47 47 48 50 50
27 28 29 30 31 32 33 33 34 34 35 35 35 36 36 36 37 37 37 38 38 38 38 39 40 40 40 41 42 42 43 45 45 46 47 48 50 51 52 52 52 51 50 49 48 47 48 48 47 47 47 48 48 48 48 48 48 49 49 47 45 45 46 46 44 43 44 46 46 46 47 49 50 48
26 27 28 29 30 31 31 32 32 33 33 33 34 34 34 34 35 35 36 36 36 37 37 38 39 39 40 40 41 42 43 44 46 46 47 48 49 50 51 51 52 52 52 51 50 49 49 48 46 45 46 47 48 49 49 49 48 48 49 48 48 47 47 47 45 45 45 45 46 46 46 47 48 48
27 28 28 29 30 30 30 31 31 31 31 32 32 32 33 33 33 34 34 34 35 35 36 36 36 37 38 39 39 40 41 41 43 44 45 47 48 49 50 50 51 52 52 52 51 50 50 49 47 45 46 48 48 49 49 48 48 48 49 49 49 48 48 48 47 47 46 47 47 46 46 46 46 46
29 29 29 29 29 29 29 29 29 30 30 31 31 32 32 32 32 31 31 32 32 32 33 34 35 36 37 37 37 37 37 37 38 39 40 42 43 45 46 48 49 50 50 50 50 49 49 48 47 46 46 47 47 48 49 48 48 49 48 47 47 47 47 46 46 47 49 48 46 44 43 43 44 43
29 29 29 29 29 29 28 28 28 29 29 30 30 31 31 30 30 30 29 30 31 31 33 34 36 36 36 36 35 33 33 32 33 33 34 36 37 39 41 43 46 48 48 48 47 47 47 47 47 46 46 46 47 48 47 47 46 47 46 45 45 45 45 46 48 49 48 44 40 39 41 43 42 41
29 28 28 28 27 27 26 26 27 27 28 28 29 29 30 29 29 29 29 30 31 33 34 35 34 34 33 33 32 31 30 30 30 30 30 31 32 34 37 40 42 44 45 46 46 45 45 45 45 46 46 47 46 46 45 45 45 45 45 45 44 44 45 46 46 44 41 40 40 41 41 39 37 36
28 27 26 25 24 24 24 24 25 25 25 26 27 28 28 28 28 28 29 31 32 33 32 32 31 31 30 29 29 29 28 28 28 28 28 29 30 31 33 35 36 38 39 41 42 42 43 43 44 44 45 45 44 43 44 44 42 41 42 43 43 44 45 46 44 42 41 42 42 40 37 36 35 36
26 25 24 23 23 24 24 24 24 24 25 26 27 27 27 27 27 28 29 30 30 30 29 29 28 28 27 27 26 26 25 25 25 25 26 27 28 29 30 31 32 34 35 36 38 39 41 42 43 43 44 45 44 44 44 43 41 39 40 40 40 41 42 43 43 42 40 39 37 35 35 35 35 35
24 24 23 24 24 25 24 24 24 25 26 26 26 26 26 26 27 28 28 28 27 27 27 27 27 26 26 25 25 24 23 23 23 23 23 24 25 26 28 29 30 31 32 33 35 36 38 39 40 40 41 41 42 42 42 41 41 41 41 39 38 37 36 36 35 35 34 33 33 32 32 32 32 32
24 24 24 25 25 24 24 23 24 24 25 25 25 26 26 27 27 26 26 26 26 26 26 25 25 24 24 24 24 23 23 23 23 23 23 23 24 25 26 27 28 28 29 30 31 32 33 34 35 36 36 36 36 36 36 35 35 35 35 34 34 33 32 32 31 30 30 30 30 30 31 31 32 32
Wind_Direction
219 217 217 217 217 214 212 211 211 213 221 229 235 239 240 241 241 240 238 239 241 240 238 240 244 245 245 240 238 244 248 248 249 250 254 257 254 250 248 248 248 251 257 266 272 276 278 277 278 279 280 280 278 276 275 274 275 278 282 286 290 293 297 301 305 309 311 312 314 318 322 324 325 326
221 222 220 220 219 218 216 213 213 215 218 223 230 236 240 242 244 248 248 246 246 248 245 241 243 247 248 246 242 244 250 255 256 257 261 261 258 255 254 253 253 253 256 261 267 272 276 280 281 283 284 285 283 281 279 278 280 283 286 290 292 294 296 298 301 303 304 304 305 309 313 316 318 319
221 223 223 223 223 222 220 218 216 217 219 220 224 231 236 239 241 245 249 251 250 251 250 246 245 250 252 252 250 249 252 256 258 259 262 263 263 262 259 258 259 260 260 263 268 272 276 279 281 283 284 285 284 284 283 283 284 286 289 291 293 295 296 297 298 300 301 301 300 301 305 309 312 314
219 222 225 227 227 225 225 224 222 220 220 221 223 228 232 236 238 240 244 248 250 251 252 249 248 253 256 258 257 255 255 258 260 261 262 264 266 267 266 264 264 265 264 265 267 271 275 278 281 282 283 283 283 283 283 283 284 285 287 289 290 291 293 294 295 296 297 298 297 297 300 304 308 311
219 222 226 229 229 228 228 228 228 226 225 224 225 228 232 235 237 238 241 245 249 251 253 254 253 255 259 261 261 260 259 260 262 263 264 264 265 267 268 270 271 271 270 269 268 269 272 275 279 281 282 283 283 283 283 282 282 282 283 284 286 287 289 291 291 292 293 295 295 296 298 300 304 307
224 223 225 228 230 229 230 231 232 231 230 230 231 232 233 235 237 239 241 244 249 251 254 256 258 258 260 262 263 263 262 262 264 266 266 266 266 265 267 270 273 275 274 273 273 273 274 277 278 279 279 281 282 283 283 283 283 283 283 283 283 284 285 287 288 290 291 292 293 294 294 295 297 301
228 228 228 229 230 230 231 234 235 235 233 233 235 236 236 237 238 239 241 243 248 252 254 256 257 259 261 262 263 264 264 264 264 266 268 268 267 267 266 267 270 273 276 276 276 275 276 279 280 281 280 280 281 282 283 284 285 285 285 284 284 285 285 286 287 288 289 290 290 290 289 290 292 296
231 232 233 234 235 233 233 236 239 240 239 237 237 239 239 240 241 240 240 242 246 251 254 255 256 257 258 260 261 263 265 265 265 265 267 269 269 270 269 267 267 270 273 275 276 277 277 278 280 281 282 281 281 281 282 283 284 284 284 283 284 285 286 287 287 287 287 287 287 287 288 289 290 292
231 234 236 238 240 239 237 239 242 244 243 242 241 242 242 242 243 243 242 243 245 249 253 256 256 257 257 259 260 262 264 266 266 265 266 267 270 272 271 269 268 268 270 271 273 276 278 279 279 279 280 280 280 279 280 281 281 282 282 281 281 282 283 284 285 286 286 286 286 287 288 289 289 291
231 233 235 238 241 241 241 242 245 247 246 246 245 245 245 245 245 246 246 245 246 249 253 257 258 258 258 259 260 261 262 264 265 265 266 267 269 270 270 270 270 270 269 269 270 274 277 279 280 280 280 280 280 280 280 281 281 282 283 282 282 281 282 283 284 285 286 286 287 287 288 290 291 293
232 232 234 236 239 241 242 242 245 248 248 248 247 247 248 248 247 248 248 249 249 250 252 256 258 260 260 260 261 261 261 262 263 264 265 267 267 267 269 270 271 271 270 270 270 272 274 276 278 280 280 281 281 282 282 283 283 284 285 285 284 284 284 284 286 287 288 288 288 289 290 291 293 295
235 236 236 237 239 241 243 244 245 247 249 249 249 248 249 250 250 250 250 251 252 252 253 255 258 260 262 262 261 261 261 261 261 262 263 265 266 268 270 271 271 271 272 271 271 272 273 274 275 277 278 280 281 282 283 283 283 284 284 284 285 285 286 286 287 288 289 289 290 290 291 292 293 295
237 239 240 241 243 245 247 247 247 248 250 251 251 250 250 250 251 253 253 254 254 254 255 257 259 261 263 264 263 263 262 261 261 261 262 262 265 268 271 272 272 272 272 272 273 274 274 275 275 275 276 277 279 281 282 282 283 283 283 283 284 285 286 287 288 288 289 290 290 291 291 292 293 295
238 241 243 243 244 247 249 251 252 251 251 252 253 253 253 253 253 254 255 256 256 257 257 259 260 261 263 265 265 265 265 264 263 262 262 263 264 265 267 270 272 273 273 273 275 277 276 276 277 277 277 277 277 278 279 280 281 282 282 283 284 285 287 287 288 288 289 290 291 292 293 293 294 295
241 242 244 244 244 246 250 254 257 257 255 253 253 253 255 256 257 257 257 258 259 260 260 261 263 264 264 265 266 266 267 267 266 266 266 265 264 263 263 266 270 272 273 273 275 276 276 276 277 279 279 278 277 276 277 277 278 279 280 282 283 285 287 288 289 290 290 291 292 293 293 294 294 294
242 243 244 245 246 248 252 255 258 260 260 257 254 253 254 256 258 260 261 261 262 263 263 264 265 266 266 265 266 267 268 268 269 269 269 267 266 266 265 265 266 268 271 272 271 272 275 276 277 279 279 278 277 277 276 276 276 277 279 281 283 285 285 286 288 289 289 290 291 292 292 292 292 292
243 244 245 247 249 252 255 258 260 262 262 261 259 256 254 255 257 259 262 264 265 265 266 266 267 267 267 267 268 269 268 269 269 269 268 267 267 267 266 264 263 264 267 268 268 270 274 276 276 278 279 278 278 278 278 277 277 278 279 281 283 285 285 286 287 288 288 289 290 291 291 291 291 291
247 247 247 249 252 254 257 259 261 263 263 263 262 260 258 257 256 257 260 263 265 266 266 267 267 268 269 269 270 270 270 269 269 268 267 267 267 267 266 265 264 264 266 268 268 268 271 274 276 277 277 278 279 280 280 280 280 280 282 283 285 286 287 288 288 288 289 290 290 290 291 291 292 291
248 250 251 252 254 257 259 261 262 264 264 263 263 262 261 259 257 257 258 260 263 265 266 267 268 269 270 271 271 271 271 269 268 268 268 268 268 267 266 266 267 268 269 270 270 269 270 273 276 275 275 277 279 281 282 283 284 284 284 285 286 287 287 288 288 289 290 291 291 290 291 291 291 290
249 251 253 254 255 257 260 262 264 265 265 264 263 262 261 259 257 257 257 259 262 265 267 268 268 268 270 271 271 272 271 270 268 268 269 269 269 267 267 269 272 272 271 272 273 271 269 272 274 274 275 277 280 282 284 284 285 285 285 286 286 287 287 288 288 288 290 291 291 290 290 290 290 289
250 253 255 255 255 256 258 261 263 265 266 265 263 262 261 261 260 259 259 261 264 266 268 270 270 270 271 271 272 273 273 272 270 270 270 270 269 268 269 271 272 271 271 273 273 272 270 271 272 273 275 277 280 282 283 284 284 284 285 285 286 287 288 288 288 288 290 290 290 290 291 290 289 288
251 254 256 258 258 258 259 261 263 266 268 267 265 263 263 264 265 265 265 265 266 268 270 271 272 272 272 272 272 272 272 272 271 271 271 271 270 270 271 271 270 270 272 274 274 272 271 272 272 274 276 277 278 281 282 283 284 284 285 286 287 287 288 287 287 288 288 288 289 290 290 289 288 287
254 256 258 260 261 262 262 263 265 267 269 268 266 264 264 265 267 268 268 267 268 269 270 270 270 271 272 271 271 270 270 270 270 270 270 270 270 271 272 272 272 272 273 275 275 275 274 274 275 277 278 278 278 280 282 282 283 285 286 287 287 287 287 287 286 286 287 287 288 289 289 288 288 289
256 257 259 260 261 262 263 265 267 269 269 267 265 264 263 263 263 264 264 265 265 266 267 268 269 269 269 269 270 270 270 270 270 270 270 269 270 271 272 273 274 274 274 274 273 274 276 276 276 277 278 279 279 282 283 282 283 285 285 285 284 285 285 285 285 286 286 287 288 288 288 288 289 290
254 256 259 260 261 263 265 267 268 268 267 266 264 263 264 264 264 264 265 265 265 265 266 268 269 269 269 269 270 271 270 270 271 271 270 270 270 271 272 273 274 275 274 272 272 274 275 277 278 278 279 280 281 282 282 281 282 282 282 283 284 284 283 283 284 285 285 286 287 287 287 288 290 291
256 258 260 262 264 265 265 266 267 266 266 265 264 264 264 265 266 267 267 267 267 267 268 268 269 270 271 272 272 272 272 272 272 272 272 272 272 273 274 275 274 273 272 272 273 275 277 278 280 281 281 282 281 279 278 278 279 279 279 281 282 282 282 283 285 285 285 287 287 287 287 288 290 290
257 259 261 263 266 266 265 265 265 264 264 263 264 265 266 268 269 269 269 269 269 269 270 270 270 271 272 272 272 272 272 273 273 274 274 275 276 276 276 276 276 275 275 275 275 275 276 278 279 280 280 279 278 276 276 277 278 278 278 279 280 281 283 284 285 285 286 287 286 286 286 287 287 287
261 261 264 266 267 267 265 264 264 264 264 264 265 267 270 272 273 273 272 271 271 270 271 271 271 272 272 272 273 273 273 273 273 275 276 276 277 277 277 277 278 278 279 280 280 279 279 279 280 281 281 280 280 279 280 280 280 279 279 279 280 281 282 283 283 284 285 285 285 286 287 288 286 285
263 264 265 267 268 267 267 267 267 268 269 269 270 271 273 274 275 275 275 274 273 273 272 272 272 272 273 274 274 274 273 274 274 275 276 276 277 277 278 278 279 280 282 283 283 283 282 282 282 282 282 282 282 283 284 283 282 281 280 280 280 280 280 281 282 283 283 284 284 285 287 287 285 284
263 264 265 266 268 269 271 272 272 273 273 274 275 275 276 277 277 277 277 277 276 276 276 275 275 275 275 276 276 277 277 277 277 277 277 277 277 278 279 279 279 281 283 283 284 284 284 284 284 283 282 282 282 283 283 282 281 280 280 280 279 279 279 280 282 282 282 284 285 285 285 284 284 284
265 265 266 268 269 270 271 272 273 274 275 275 276 277 277 277 277 277 276 276 276 276 276 276 276 276 276 276 277 277 277 277 277 277 277 277 277 278 278 279 279 281 282 282 282 283 284 284 283 282 282 282 282 282 282 282 282 282 281 280 278 278 278 279 281 282 282 283 284 285 285 285 285 285
267 268 268 270 271 272 273 273 274 275 275 276 277 277 277 277 277 277 277 276 276 276 276 275 275 276 276 276 276 276 277 277 277 277 277 277 277 277 277 278 279 280 280 280 281 281 281 281 281 281 281 281 282 282 283 283 283 284 284 282 278 277 278 279 280 281 282 283 284 285 285 286 287 288
270 270 270 271 272 273 274 275 275 276 276 276 276 277 277 278 279 279 279 279 279 278 278 278 278 278 277 277 278 277 278 278 278 277 277 278 278 277 277 278 279 279 278 278 278 279 279 279 279 279 280 280 281 282 283 285 286 287 288 286 280 276 277 279 280 281 282 283 283 284 285 286 288 289
272 272 272 272 273 273 274 274 274 275 275 275 276 277 277 278 278 279 279 280 280 280 280 281 281 281 280 280 279 278 278 277 276 275 276 276 277 276 276 277 278 278 277 276 276 276 277 278 278 278 279 279 280 281 282 285 287 287 288 288 285 280 279 280 282 284 284 283 284 285 286 288 290 290
273 273 272 272 272 273 273 273 274 274 275 275 275 276 277 278 278 279 280 281 281 282 282 283 283 282 282 281 280 279 278 277 275 274 274 274 274 274 275 275 276 276 276 276 275 275 275 275 277 278 278 278 279 280 282 284 286 286 285 286 286 285 284 285 286 286 286 286 287 288 288 290 291 291
272 272 272 272 271 271 272 272 273 274 275 275 276 277 278 279 280 281 281 282 282 283 283 283 283 283 282 281 280 279 277 276 275 274 273 272 273 273 273 274 274 274 274 274 274 273 272 273 274 277 278 278 279 280 281 281 282 283 284 284 285 284 284 284 283 283 284 286 287 288 288 289 290 291
270 271 270 271 271 271 272 273 274 275 276 278 279 280 280 281 281 282 283 284 284 284 284 284 284 284 283 281 280 278 277 275 274 273 272 272 272 272 272 272 272 272 272 272 272 272 272 273 274 275 276 276 277 278 278 277 277 278 281 282 282 282 282 283 284 284 285 286 287 287 287 288 290 291
273 273 272 272 272 272 273 274 276 277 278 279 280 281 281 282 283 283 284 285 285 285 286 287 288 288 287 285 282 280 278 277 277 275 274 273 273 273 273 273 273 272 272 271 272 272 272 273 273 273 272 273 274 276 277 278 278 278 279 280 280 281 283 284 285 285 286 287 287 286 287 288 291 292
278 278 278 278 277 277 277 278 279 280 282 283 284 284 285 285 285 285 285 285 286 288 290 293 294 294 293 290 287 283 280 279 279 278 276 275 274 275 275 275 275 274 273 272 272 272 272 273 273 272 271 272 274 275 277 278 279 279 280 280 281 282 284 285 285 285 286 286 284 284 285 289 291 293
279 279 279 279 278 278 279 280 282 283 284 285 285 286 286 286 286 286 286 287 289 292 295 297 298 298 298 296 293 289 285 284 283 282 279 276 275 275 276 276 276 275 276 276 275 273 273 273 273 273 272 273 274 275 277 278 279 280 281 282 283 283 285 286 286 284 283 283 284 286 290 293 294 294
279 279 278 277 276 276 277 278 279 281 282 283 284 285 284 284 284 285 286 288 291 294 296 297 298 299 300 299 297 294 292 291 290 289 287 283 280 279 278 279 279 278 278 278 277 276 275 274 274 273 274 274 275 276 278 280 281 280 280 281 283 284 284 283 283 282 282 285 290 294 296 295 292 289
282 282 280 279 278 277 277 277 278 279 281 282 283 282 281 280 281 282 285 288 291 293 294 296 297 299 301 301 299 297 296 295 295 294 293 290 287 285 283 282 281 281 280 280 280 280 279 278 277 277 276 276 276 277 279 281 282 281 280 280 282 283 281 280 281 284 288 291 293 295 294 292 289 288
284 283 282 281 279 279 279 278 279 280 282 284 283 282 281 282 284 286 289 291 292 293 295 296 298 300 301 301 300 299 299 299 299 299 298 297 295 293 291 289 288 286 285 284 283 282 282 281 281 280 279 278 277 277 279 280 281 283 284 285 284 283 282 281 284 287 291 293 294 293 292 291 292 294
282 281 280 279 279 279 278 278 280 284 286 287 286 285 286 288 291 293 295 296 297 298 299 300 301 302 302 302 301 301 302 302 302 303 303 303 303 301 300 298 297 295 292 290 288 286 285 284 283 282 282 281 280 280 281 281 282 284 288 290 290 291 291 292 292 293 294 296 296 296 296 297 299 301
280 279 278 279 279 278 277 279 283 288 291 292 292 291 292 294 295 297 298 299 299 300 300 301 301 302 302 302 302 302 303 303 304 305 305 306 306 306 306 305 304 302 300 298 295 293 290 289 287 286 285 285 285 285 286 287 287 288 290 292 294 295 296 296 295 295 296 297 298 299 300 301 301 301
Height
5923 5924 5925 5925 5926 5927 5927 5928 5928 5929 5930 5931 5931 5932 5933 5934 5934 5935 5935 5936 5936 5937 5937 5938 5939 5939 5939 5940 5940 5939 5939 5940 5940 5940 5940 5940 5940 5940 5939 5939 5939 5939 5939 5938 5938 5938 5938 5938 5938 5937 5937 5936 5936 5935 5935 5935 5934 5934 5933 5933 5932 5932 5931 5931 5930 5929 5929 5928 5927 5927 5926 5925 5924 5923
5921 5922 5923 5924 5925 5925 5926 5926 5927 5928 5928 5929 5930 5931 5931 5932 5933 5934 5934 5935 5935 5935 5936 5937 5937 5938 5938 5938 5939 5938 5938 5938 5938 5939 5939 5939 5939 5939 5938 5938 5938 5938 5938 5937 5937 5937 5937 5937 5936 5936 5936 5935 5935 5934 5934 5933 5933 5932 5932 5932 5931 5930 5930 5929 5928 5928 5927 5926 5926 5925 5924 5923 5922 5921
5920 5921 5922 5922 5923 5924 5924 5924 5925 5926 5927 5928 5928 5929 5930 5930 5931 5932 5933 5933 5934 5934 5934 5935 5936 5936 5936 5937 5937 5937 5937 5937 5937 5937 5937 5937 5937 5937 5937 5937 5937 5937 5936 5936 5936 5936 5935 5935 5935 5935 5934 5934 5934 5933 5933 5932 5932 5931 5930 5930 5929 5929 5928 5927 5927 5926 5925 5925 5924 5923 5922 5921 5920 5919
5918 5919 5920 5920 5921 5921 5922 5923 5923 5924 5925 5926 5926 5927 5928 5929 5930 5930 5931 5931 5932 5932 5932 5933 5934 5934 5934 5935 5935 5935 5935 5935 5935 5935 5935 5935 5936 5936 5936 5936 5935 5935 5935 5935 5935 5934 5934 5934 5933 5933 5933 5932 5932 5932 5931 5931 5930 5929 5929 5928 5928 5927 5926 5926 5925 5924 5923 5923 5922 5921 5920 5919 5918 5917
5915 5917 5918 5918 5919 5919 5920 5921 5921 5922 5923 5923 5924 5925 5926 5927 5928 5928 5929 5929 5929 5930 5931 5931 5932 5932 5932 5933 5933 5933 5933 5933 5933 5933 5933 5934 5934 5934 5934 5934 5933 5933 5933 5933 5933 5933 5932 5932 5932 5932 5931 5931 5930 5930 5929 5929 5928 5928 5927 5926 5925 5925 5924 5923 5923 5922 5921 5921 5920 5919 5917 5916 5915 5914
5912 5914 5915 5915 5916 5917 5918 5919 5919 5920 5921 5921 5922 5923 5924 5925 5925 5926 5927 5927 5928 5928 5928 5929 5929 5930 5930 5930 5931 5931 5931 5931 5931 5931 5931 5931 5932 5932 5932 5931 5931 5931 5931 5931 5931 5931 5931 5930 5930 5930 5930 5929 5928 5928 5927 5927 5926 5925 5925 5924 5923 5923 5922 5921 5921 5920 5919 5918 5917 5916 5915 5914 5913 5912
5910 5911 5912 5912 5913 5915 5916 5916 5917 5918 5919 5920 5920 5921 5922 5922 5923 5924 5925 5925 5926 5926 5926 5927 5927 5928 5928 5928 5928 5928 5928 5929 5929 5929 5929 5929 5929 5929 5929 5929 5929 5929 5929 5929 5929 5929 5928 5928 5928 5928 5927 5927 5926 5926 5925 5924 5924 5923 5922 5922 5921 5920 5920 5919 5918 5917 5917 5915 5914 5913 5913 5912 5910 5909
5907 5908 5909 5910 5911 5912 5914 5914 5915 5916 5917 5917 5918 5919 5919 5920 5920 5921 5922 5923 5924 5924 5924 5924 5925 5925 5926 5926 5926 5926 5926 5926 5926 5926 5926 5926 5926 5927 5927 5927 5927 5927 5927 5926 5926 5926 5926 5926 5925 5925 5925 5924 5924 5923 5922 5922 5921 5920 5920 5919 5918 5918 5917 5916 5915 5915 5914 5913 5912 5911 5910 5909 5908 5907
5904 5906 5907 5907 5908 5910 5912 5912 5913 5913 5914 5915 5916 5916 5917 5917 5918 5919 5920 5920 5921 5922 5922 5922 5922 5923 5923 5924 5924 5924 5924 5924 5924 5924 5924 5924 5924 5924 5924 5924 5924 5924 5924 5923 5923 5923 5923 5923 5923 5922 5922 5921 5921 5920 5919 5919 5918 5917 5917 5916 5916 5915 5914 5913 5912 5912 5911 5910 5909 5908 5907 5906 5905 5904
5902 5903 5904 5905 5906 5907 5909 5910 5910 5911 5911 5912 5913 5914 5914 5915 5915 5916 5917 5917 5918 5919 5919 5919 5919 5920 5920 5921 5921 5921 5921 5921 5921 5921 5921 5921 5921 5921 5921 5921 5921 5921 5921 5921 5921 5920 5920 5920 5919 5919 5918 5918 5917 5917 5916 5916 5915 5914 5914 5913 5913 5912 5911 5910 5909 5909 5908 5907 5906 5905 5904 5903 5902 5901
5899 5900 5901 5902 5903 5905 5906 5907 5907 5908 5909 5909 5910 5911 5911 5912 5913 5913 5914 5914 5915 5916 5916 5916 5916 5917 5917 5918 5918 5918 5918 5918 5918 5918 5918 5919 5918 5918 5918 5918 5918 5918 5917 5917 5918 5918 5917 5917 5916 5915 5914 5914 5913 5913 5913 5912 5912 5911 5911 5910 5909 5909 5908 5907 5906 5905 5904 5904 5903 5902 5901 5900 5899 5898
5896 5897 5898 5899 5900 5901 5903 5904 5904 5905 5906 5906 5907 5908 5908 5909 5910 5911 5911 5912 5912 5913 5913 5913 5913 5914 5914 5914 5914 5914 5915 5915 5915 5915 5915 5915 5915 5915 5916 5915 5914 5914 5914 5914 5914 5914 5914 5914 5913 5912 5911 5910 5910 5909 5909 5909 5909 5908 5907 5906 5905 5905 5904 5904 5903 5902 5901 5900 5899 5898 5897 5896 5895 5894
5892 5894 5895 5896 5897 5898 5899 5900 5901 5902 5903 5903 5904 5905 5905 5906 5907 5907 5908 5909 5909 5909 5910 5910 5910 5911 5911 5911 5911 5911 5911 5911 5911 5911 5912 5912 5912 5913 5913 5912 5911 5910 5910 5910 5910 5909 5909 5909 5909 5908 5908 5907 5906 5906 5905 5905 5905 5904 5903 5902 5901 5901 5900 5900 5899 5898 5897 5896 5896 5895 5893 5892 5891 5890
5889 5890 5892 5893 5894 5895 5896 5897 5898 5899 5899 5900 5901 5901 5902 5902 5903 5904 5905 5905 5906 5906 5907 5907 5907 5908 5908 5908 5908 5908 5907 5907 5907 5907 5908 5909 5909 5909 5909 5908 5907 5906 5906 5906 5906 5905 5904 5904 5904 5904 5903 5903 5902 5902 5902 5901 5901 5900 5899 5898 5897 5897 5896 5896 5895 5894 5893 5893 5891 5890 5889 5888 5886 5885
5886 5887 5888 5889 5890 5891 5892 5893 5894 5895 5896 5897 5897 5898 5898 5899 5900 5901 5901 5902 5902 5903 5904 5904 5904 5905 5905 5905 5904 5904 5904 5903 5903 5904 5904 5905 5905 5905 5906 5906 5904 5902 5901 5902 5903 5901 5899 5900 5900 5899 5898 5898 5898 5898 5897 5897 5896 5896 5895 5894 5893 5893 5892 5892 5891 5890 5889 5888 5887 5886 5885 5883 5882 5881
5882 5883 5885 5886 5887 5888 5889 5890 5890 5891 5892 5893 5893 5894 5895 5895 5896 5897 5898 5899 5899 5899 5900 5901 5901 5902 5902 5901 5901 5900 5900 5899 5899 5900 5900 5901 5901 5901 5902 5902 5900 5898 5897 5897 5898 5897 5895 5895 5895 5895 5894 5892 5893 5893 5893 5892 5892 5891 5891 5890 5889 5889 5888 5888 5887 5886 5885 5884 5882 5881 5880 5879 5877 5876
5879 5880 5881 5882 5884 5884 5885 5886 5887 5887 5888 5889 5889 5890 5891 5892 5893 5893 5894 5895 5895 5896 5896 5897 5898 5898 5897 5898 5898 5896 5895 5896 5896 5896 5896 5896 5896 5896 5896 5896 5895 5893 5892 5891 5892 5893 5892 5889 5890 5891 5889 5887 5888 5888 5888 5888 5887 5887 5886 5886 5885 5884 5884 5883 5882 5881 5880 5879 5878 5877 5875 5874 5873 5871
5876 5877 5878 5879 5880 5881 5881 5882 5883 5883 5884 5884 5885 5886 5887 5889 5889 5890 5890 5891 5891 5892 5892 5893 5894 5894 5893 5894 5894 5892 5891 5892 5891 5891 5891 5891 5891 5891 5891 5890 5890 5889 5888 5886 5887 5890 5888 5884 5885 5887 5884 5882 5883 5884 5883 5883 5883 5882 5882 5881 5880 5880 5879 5878 5877 5876 5875 5874 5873 5872 5871 5869 5868 5867
5873 5874 5875 5876 5877 5877 5878 5879 5879 5879 5880 5880 5881 5882 5884 5885 5885 5886 5886 5886 5886 5887 5888 5889 5890 5890 5889 5890 5890 5888 5888 5888 5887 5887 5887 5887 5887 5887 5886 5885 5884 5884 5883 5881 5882 5885 5885 5881 5881 5882 5879 5878 5879 5880 5879 5878 5878 5877 5877 5876 5875 5875 5874 5873 5872 5871 5870 5869 5868 5867 5866 5864 5863 5862
5869 5870 5872 5873 5873 5874 5874 5875 5875 5875 5876 5877 5878 5879 5880 5880 5881 5882 5882 5882 5882 5883 5883 5884 5885 5886 5885 5885 5885 5884 5884 5884 5883 5883 5883 5884 5882 5881 5880 5881 5880 5879 5878 5877 5877 5879 5880 5878 5876 5876 5875 5874 5875 5875 5875 5874 5873 5872 5871 5871 5870 5869 5868 5867 5866 5865 5864 5863 5862 5861 5860 5859 5858 5856
5866 5867 5868 5869 5869 5870 5870 5871 5871 5871 5872 5873 5874 5875 5876 5876 5877 5878 5878 5878 5878 5878 5879 5880 5881 5881 5882 5881 5881 5881 5880 5879 5879 5879 5879 5879 5877 5875 5875 5877 5876 5874 5874 5874 5873 5873 5875 5874 5871 5870 5870 5870 5871 5871 5870 5868 5867 5866 5866 5865 5865 5864 5863 5861 5860 5859 5859 5858 5857 5856 5855 5854 5852 5851
5862 5863 5864 5865 5866 5866 5867 5867 5867 5867 5867 5869 5871 5872 5872 5873 5874 5875 5875 5874 5874 5874 5874 5875 5876 5876 5877 5877 5877 5876 5875 5874 5874 5875 5875 5874 5871 5870 5871 5871 5871 5870 5871 5871 5868 5867 5869 5869 5866 5865 5866 5866 5867 5866 5864 5863 5861 5860 5860 5860 5859 5859 5857 5856 5854 5854 5853 5852 5851 5850 5850 5848 5846 5845
5859 5860 5860 5861 5862 5862 5862 5863 5863 5863 5863 5865 5866 5867 5868 5869 5870 5870 5869 5869 5870 5869 5869 5870 5871 5871 5872 5871 5872 5872 5871 5870 5869 5870 5870 5868 5866 5865 5866 5866 5866 5866 5868 5868 5864 5861 5863 5863 5861 5861 5860 5860 5862 5862 5859 5858 5857 5856 5855 5854 5853 5853 5851 5850 5848 5848 5847 5846 5845 5845 5844 5842 5841 5839
5855 5856 5857 5857 5857 5858 5858 5858 5858 5858 5859 5860 5861 5862 5863 5864 5865 5864 5864 5865 5865 5864 5864 5865 5865 5866 5866 5866 5867 5867 5866 5865 5865 5865 5864 5863 5861 5861 5861 5861 5861 5862 5865 5864 5859 5856 5857 5857 5856 5856 5854 5853 5855 5857 5855 5853 5852 5851 5850 5848 5846 5846 5845 5843 5842 5841 5841 5840 5840 5839 5837 5836 5835 5834
5851 5852 5852 5852 5853 5853 5854 5854 5854 5854 5854 5855 5856 5857 5858 5859 5859 5859 5860 5860 5860 5860 5860 5860 5860 5860 5861 5861 5862 5862 5862 5861 5860 5859 5859 5858 5857 5856 5856 5857 5856 5857 5858 5858 5854 5852 5852 5851 5850 5850 5849 5848 5849 5850 5850 5849 5848 5846 5844 5842 5841 5839 5837 5836 5836 5835 5835 5834 5834 5833 5831 5830 5830 5829
5847 5848 5848 5848 5849 5849 5850 5850 5850 5850 5850 5851 5852 5853 5853 5854 5854 5855 5855 5855 5855 5855 5856 5856 5856 5856 5856 5856 5857 5857 5857 5856 5854 5854 5854 5853 5852 5851 5851 5851 5850 5850 5851 5851 5850 5848 5847 5847 5846 5844 5843 5843 5843 5842 5842 5843 5843 5841 5838 5837 5835 5833 5831 5830 5829 5829 5828 5828 5828 5827 5826 5825 5825 5823
5844 5844 5845 5845 5845 5845 5846 5846 5846 5846 5847 5847 5847 5848 5848 5848 5849 5850 5850 5850 5850 5851 5851 5851 5852 5852 5852 5852 5852 5851 5851 5850 5849 5848 5848 5847 5846 5845 5845 5844 5843 5843 5844 5845 5844 5843 5841 5841 5840 5838 5837 5837 5836 5835 5835 5837 5837 5836 5834 5832 5830 5828 5827 5825 5823 5822 5822 5822 5821 5820 5820 5820 5819 5817
5840 5840 5841 5841 5841 5842 5842 5843 5843 5843 5843 5843 5843 5843 5843 5843 5844 5844 5845 5845 5845 5846 5846 5846 5847 5847 5847 5846 5846 5846 5845 5844 5844 5843 5843 5841 5840 5839 5838 5837 5837 5837 5837 5838 5838 5836 5835 5835 5835 5833 5831 5829 5828 5828 5829 5830 5830 5829 5828 5826 5825 5824 5822 5819 5818 5817 5816 5815 5814 5813 5813 5813 5811 5810
5836 5836 5837 5837 5838 5838 5839 5839 5839 5839 5839 5838 5838 5839 5838 5838 5838 5839 5839 5839 5840 5840 5841 5841 5841 5842 5842 5840 5840 5840 5839 5839 5839 5838 5837 5835 5834 5833 5832 5831 5830 5831 5831 5832 5831 5829 5828 5828 5828 5827 5824 5823 5822 5822 5823 5823 5823 5822 5822 5820 5820 5819 5816 5813 5812 5811 5809 5808 5808 5808 5808 5806 5803 5802
5832 5833 5833 5834 5834 5835 5835 5835 5835 5835 5834 5834 5834 5834 5833 5833 5833 5833 5833 5834 5834 5835 5836 5835 5835 5836 5836 5834 5833 5833 5832 5832 5833 5832 5830 5829 5828 5827 5825 5823 5824 5826 5826 5825 5824 5822 5820 5820 5821 5819 5817 5817 5816 5817 5817 5816 5815 5815 5816 5814 5813 5811 5809 5808 5806 5804 5802 5802 5801 5801 5801 5799 5796 5794
5828 5829 5830 5830 5830 5830 5830 5830 5830 5830 5830 5829 5829 5829 5828 5828 5828 5828 5828 5828 5828 5829 5829 5828 5828 5829 5829 5827 5827 5827 5825 5825 5827 5825 5822 5821 5821 5821 5817 5815 5818 5821 5820 5818 5817 5816 5813 5812 5811 5811 5810 5809 5809 5810 5809 5808 5808 5808 5808 5807 5804 5802 5801 5801 5800 5797 5795 5794 5793 5793 5792 5791 5789 5787
5825 5825 5825 5825 5825 5825 5825 5825 5825 5825 5825 5824 5824 5823 5823 5823 5822 5822 5822 5822 5822 5822 5822 5821 5821 5822 5822 5821 5820 5820 5818 5818 5820 5818 5814 5813 5814 5814 5810 5808 5810 5813 5813 5811 5811 5809 5807 5804 5803 5802 5802 5801 5801 5801 5800 5800 5800 5799 5798 5797 5795 5793 5792 5793 5791 5790 5788 5787 5786 5785 5783 5782 5781 5779
5822 5822 5821 5821 5821 5821 5820 5820 5820 5820 5819 5819 5819 5818 5818 5817 5817 5816 5816 5816 5816 5815 5814 5814 5815 5815 5814 5814 5813 5813 5812 5812 5812 5810 5807 5806 5806 5805 5803 5802 5803 5805 5805 5804 5804 5803 5800 5798 5796 5794 5794 5794 5793 5793 5792 5791 5792 5791 5789 5787 5785 5784 5784 5784 5783 5782 5782 5780 5778 5776 5775 5774 5773 5772
5818 5818 5817 5817 5817 5816 5816 5816 5815 5815 5815 5814 5814 5813 5813 5812 5812 5811 5810 5810 5809 5809 5808 5807 5807 5807 5807 5807 5806 5806 5805 5804 5804 5803 5801 5799 5798 5797 5796 5795 5795 5796 5796 5796 5797 5796 5794 5792 5790 5788 5787 5787 5787 5787 5786 5785 5785 5784 5782 5779 5777 5776 5775 5775 5775 5774 5773 5771 5769 5768 5767 5766 5766 5764
5814 5813 5813 5813 5812 5812 5811 5811 5811 5810 5810 5810 5809 5809 5808 5807 5806 5806 5805 5804 5804 5803 5802 5802 5801 5800 5800 5799 5799 5798 5798 5797 5796 5796 5794 5792 5791 5790 5789 5788 5788 5788 5788 5788 5788 5789 5787 5785 5783 5782 5781 5780 5779 5779 5780 5779 5777 5776 5774 5772 5770 5768 5767 5767 5767 5766 5763 5762 5762 5761 5760 5758 5758 5757
5809 5809 5808 5808 5808 5807 5807 5806 5806 5806 5805 5805 5805 5804 5804 5803 5802 5801 5800 5799 5799 5798 5797 5796 5795 5794 5794 5793 5792 5791 5790 5789 5788 5788 5787 5785 5784 5783 5782 5781 5781 5781 5780 5780 5780 5780 5779 5777 5777 5776 5774 5773 5772 5772 5772 5771 5769 5766 5764 5763 5763 5761 5760 5759 5758 5758 5757 5756 5755 5754 5753 5752 5750 5749
5805 5805 5804 5804 5803 5803 5803 5802 5802 5801 5801 5801 5800 5800 5799 5798 5797 5796 5795 5794 5793 5792 5791 5790 5789 5788 5787 5786 5785 5784 5783 5781 5780 5780 5779 5778 5776 5775 5774 5774 5773 5772 5772 5771 5771 5771 5770 5770 5770 5770 5768 5766 5765 5764 5764 5763 5761 5759 5757 5756 5755 5754 5753 5752 5751 5750 5750 5749 5747 5747 5746 5745 5743 5742
5801 5801 5800 5800 5799 5799 5798 5798 5798 5797 5797 5796 5795 5795 5794 5793 5792 5791 5789 5788 5787 5786 5785 5784 5783 5782 5780 5779 5778 5777 5775 5774 5773 5772 5771 5770 5769 5768 5767 5766 5766 5765 5764 5764 5763 5763 5762 5762 5763 5762 5761 5759 5757 5757 5756 5755 5754 5753 5752 5750 5749 5748 5747 5746 5744 5743 5742 5741 5740 5740 5739 5738 5736 5735
5797 5796 5796 5796 5795 5795 5794 5794 5793 5792 5792 5791 5790 5789 5788 5787 5786 5785 5784 5783 5782 5781 5780 5779 5777 5776 5774 5773 5771 5770 5769 5768 5767 5765 5764 5763 5762 5762 5761 5760 5759 5758 5757 5757 5756 5756 5755 5755 5755 5755 5754 5752 5751 5750 5749 5748 5747 5746 5746 5745 5744 5742 5741 5740 5738 5736 5735 5735 5734 5733 5732 5732 5730 5728
5793 5792 5792 5791 5790 5790 5789 5789 5788 5787 5787 5786 5785 5784 5783 5782 5781 5780 5779 5779 5777 5776 5775 5773 5772 5770 5768 5766 5765 5763 5763 5762 5760 5759 5758 5756 5756 5755 5754 5754 5753 5752 5751 5750 5750 5749 5749 5748 5748 5747 5746 5745 5744 5743 5742 5742 5741 5740 5739 5738 5737 5736 5735 5733 5731 5729 5728 5728 5727 5726 5726 5725 5723 5722
5788 5787 5787 5786 5785 5785 5785 5784 5783 5783 5782 5781 5780 5779 5779 5778 5777 5776 5775 5774 5773 5772 5770 5768 5767 5765 5763 5761 5759 5758 5757 5756 5755 5754 5752 5751 5751 5750 5749 5748 5747 5746 5745 5744 5743 5743 5742 5742 5741 5741 5739 5738 5737 5736 5735 5735 5735 5733 5732 5731 5730 5729 5728 5727 5724 5723 5722 5721 5721 5720 5719 5719 5718 5718
5783 5783 5782 5782 5781 5781 5780 5780 5779 5779 5778 5777 5776 5775 5775 5774 5773 5772 5771 5770 5769 5767 5766 5764 5762 5760 5759 5757 5755 5754 5753 5751 5750 5749 5748 5747 5746 5745 5744 5743 5742 5740 5739 5738 5737 5736 5736 5735 5735 5734 5733 5732 5731 5730 5729 5729 5728 5727 5725 5725 5724 5723 5721 5719 5717 5716 5716 5716 5715 5715 5715 5714 5714 5713
5780 5779 5779 5778 5778 5777 5777 5776 5775 5775 5774 5773 5773 5772 5771 5770 5769 5768 5767 5766 5765 5763 5762 5760 5758 5757 5755 5753 5752 5750 5749 5748 5746 5745 5744 5743 5742 5741 5739 5738 5737 5736 5734 5733 5732 5731 5730 5729 5728 5728 5727 5726 5725 5724 5723 5723 5722 5721 5720 5719 5719 5717 5716 5714 5713 5712 5711 5711 5711 5710 5710 5709 5709 5708
5776 5776 5775 5775 5774 5774 5773 5773 5772 5772 5771 5770 5769 5768 5767 5766 5765 5764 5763 5762 5761 5759 5758 5756 5755 5753 5751 5750 5748 5747 5745 5744 5743 5741 5740 5739 5737 5736 5735 5734 5733 5732 5730 5729 5727 5726 5725 5723 5722 5722 5721 5720 5720 5719 5718 5717 5717 5716 5715 5714 5713 5712 5711 5710 5708 5707 5707 5706 5706 5705 5704 5704 5704 5703
5773 5773 5772 5772 5771 5770 5770 5769 5769 5768 5767 5766 5765 5764 5764 5763 5762 5761 5760 5758 5757 5756 5754 5753 5751 5750 5748 5746 5745 5743 5742 5740 5739 5737 5736 5735 5734 5732 5731 5730 5729 5727 5726 5725 5723 5722 5721 5719 5718 5717 5716 5715 5715 5714 5713 5713 5712 5711 5710 5710 5709 5708 5707 5706 5705 5704 5703 5703 5702 5701 5700 5700 5700 5699